Weather History for KI16 - May, 2013

Change the Weather History Date:

Saturday, May 18, 2013

  Actual Average (KBKW) Record (KBKW)
Temperature  
Mean Temperature 68 °F 60 °F  
Max Temperature 77 °F 71 °F 87 °F (1996)
Min Temperature 59 °F 50 °F 28 °F (1955)
Degree Days  
Heating Degree Days 0 6  
Month to date heating degree days 133  
Since 1 July heating degree days 5242  
Cooling Degree Days 3 1  
Month to date cooling degree days 12  
Year to date cooling degree days 22  
Growing Degree Days 18 (Base 50)    
Moisture  
Dew Point 63 °F    
Average Humidity 84    
Maximum Humidity 100    
Minimum Humidity 59    
Precipitation  
Precipitation 0.00 in 0.16 in 1.08 in (1981)
Month to date precipitation 2.65  
Year to date precipitation 15.15  
Snow  
Snow 0.00 in - - ()
Month to date snowfall  
Since 1 September snowfall  
Snow Depth -    
Sea Level Pressure  
Sea Level Pressure 30.15 in    
Wind  
Wind Speed - (North)    
Max Wind Speed -    
Max Gust Speed -    
Visibility 8 miles    
Events Rain    
T = Trace of Precipitation, MM = Missing Value Source: NWS Daily Summary

Daily Weather History Graph

Daily Weather History Graph

Search for Another Location

Airport or City:

Trip Planner

Search our weather history database for the weather conditions in past years. The results will help you decide how hot, cold, wet, or windy it might be!

Date:

Astronomy

May. 18, 2013 Rise Set
Actual Time 6:14 AM EDT 8:31 PM EDT
Civil Twilight 5:44 AM EDT 9:01 PM EDT
Nautical Twilight 5:08 AM EDT 9:37 PM EDT
Astronomical Twilight 4:28 AM EDT 10:17 PM EDT
Moon 1:41 PM EDT (5/18) 1:57 AM EDT (5/18)
Length of Visible Light 15h 16m
Length of Day
14h 17m
First Quarter, 55% of the Moon is Illuminated
May 18
First Quarter
May 25
Full
May 31
Last Quarter
Jun 8
New
Jun 16
First Quarter

Hourly Weather History & Observations

Time (EDT) Temp. Dew Point Humidity Pressure Visibility Wind Dir Wind Speed Gust Speed Precip Events Conditions
12:15 AM 63.7 °F 63.5 °F 99% 30.19 in 7.0 mi North - - N/A   Overcast
12:35 AM 63.5 °F 63.5 °F 100% 30.18 in 7.0 mi North - - N/A   Scattered Clouds
12:55 AM 63.1 °F 63.1 °F 100% 30.18 in 7.0 mi North - - N/A   Scattered Clouds
1:15 AM 63.0 °F 63.0 °F 100% 30.17 in 7.0 mi North - - N/A Rain Light Rain
1:35 AM 62.6 °F 62.6 °F 100% 30.16 in 5.0 mi North - - N/A   Overcast
1:55 AM 62.2 °F 62.2 °F 100% 30.15 in 5.0 mi North - - N/A   Mostly Cloudy
2:15 AM 62.1 °F 62.1 °F 100% 30.14 in 5.0 mi North - - N/A   Mostly Cloudy
2:35 AM 61.9 °F 61.9 °F 100% 30.14 in 5.0 mi North - - N/A   Scattered Clouds
2:55 AM 61.7 °F 61.7 °F 100% 30.13 in 5.0 mi North - - N/A   Mostly Cloudy
3:15 AM 61.9 °F 61.9 °F 100% 30.13 in 7.0 mi North - - N/A   Mostly Cloudy
3:35 AM 62.1 °F 62.1 °F 100% 30.13 in 5.0 mi North - - N/A   Overcast
3:55 AM 61.9 °F 61.9 °F 100% 30.13 in 5.0 mi North - - N/A   Overcast
4:15 AM 62.1 °F 62.1 °F 100% 30.13 in 5.0 mi North - - N/A   Overcast
4:35 AM 61.9 °F 61.9 °F 100% 30.13 in 5.0 mi North - - N/A   Overcast
4:55 AM 61.7 °F 61.7 °F 100% 30.13 in 5.0 mi North - - N/A   Mostly Cloudy
5:15 AM 61.2 °F 61.2 °F 100% 30.14 in 5.0 mi North - - N/A   Mostly Cloudy
5:35 AM 61.2 °F 61.2 °F 100% 30.14 in 5.0 mi North - - N/A   Overcast
5:55 AM 61.3 °F 61.3 °F 100% 30.14 in 5.0 mi North - - N/A   Overcast
6:15 AM 60.8 °F 60.8 °F 100% 30.14 in 3.0 mi North - - N/A   Scattered Clouds
6:35 AM 60.3 °F 60.3 °F 100% 30.16 in 1.8 mi North - - N/A   Mist
6:55 AM 59.9 °F 59.9 °F 100% 30.16 in 2.0 mi North - - N/A   Clear
7:15 AM 59.9 °F 59.9 °F 100% 30.16 in 2.0 mi North - - N/A   Clear
7:35 AM 60.4 °F 60.4 °F 100% 30.17 in 7.0 mi North - - N/A   Clear
7:55 AM 62.6 °F 62.6 °F 100% 30.18 in 7.0 mi North - - N/A   Clear
8:15 AM 64.4 °F 64.4 °F 100% 30.18 in 10.0 mi North - - N/A   Clear
8:35 AM 67.3 °F 63.9 °F 89% 30.19 in 10.0 mi North - - N/A   Clear
8:55 AM 68.7 °F 63.5 °F 83% 30.19 in 10.0 mi North - - N/A   Scattered Clouds
9:15 AM 70.3 °F 64.2 °F 81% 30.20 in 10.0 mi North - - N/A   Scattered Clouds
9:35 AM 71.6 °F 64.4 °F 78% 30.20 in 10.0 mi North - - N/A   Mostly Cloudy
9:55 AM 73.2 °F 64.9 °F 75% 30.19 in 10.0 mi North - - N/A   Mostly Cloudy
10:15 AM 74.8 °F 65.1 °F 72% 30.19 in 10.0 mi North - - N/A   Scattered Clouds
10:35 AM 75.0 °F 64.4 °F 69% 30.18 in 10.0 mi North - - N/A   Scattered Clouds
10:55 AM 73.9 °F 63.7 °F 70% 30.18 in 10.0 mi North - - N/A   Scattered Clouds
11:15 AM 73.4 °F 63.7 °F 71% 30.18 in 10.0 mi North - - N/A   Scattered Clouds
11:35 AM 74.5 °F 64.0 °F 70% 30.18 in 10.0 mi North - - N/A   Mostly Cloudy
11:55 AM 75.6 °F 64.2 °F 68% 30.18 in 10.0 mi North - - N/A Rain Light Rain
12:15 PM 76.3 °F 64.4 °F 67% 30.18 in 10.0 mi North - - N/A   Scattered Clouds
12:35 PM 77.4 °F 64.9 °F 65% 30.17 in 10.0 mi North - - N/A   Mostly Cloudy
12:55 PM 75.9 °F 64.4 °F 67% 30.16 in 10.0 mi North - - N/A   Overcast
1:15 PM 72.1 °F 67.8 °F 86% 30.16 in 5.0 mi North - - N/A Rain Light Rain
1:35 PM 74.3 °F 63.3 °F 68% 30.16 in 10.0 mi North - - N/A   Overcast
1:55 PM 75.0 °F 64.2 °F 69% 30.15 in 10.0 mi North - - N/A   Overcast
2:15 PM 75.6 °F 63.0 °F 65% 30.15 in 10.0 mi North - - N/A   Overcast
2:35 PM 77.0 °F 63.3 °F 63% 30.13 in 10.0 mi North - - N/A   Mostly Cloudy
3:15 PM 77.5 °F 62.1 °F 59% 30.13 in 10.0 mi North - - N/A   Scattered Clouds
3:35 PM 76.3 °F 61.0 °F 59% 30.13 in 10.0 mi North - - N/A   Mostly Cloudy
3:55 PM 75.2 °F 61.2 °F 62% 30.12 in 10.0 mi North - - N/A   Overcast
4:15 PM 75.6 °F 61.7 °F 62% 30.12 in 10.0 mi North - - N/A   Overcast
4:35 PM 75.2 °F 61.7 °F 63% 30.11 in 10.0 mi North - - N/A   Overcast
4:55 PM 74.3 °F 61.7 °F 65% 30.11 in 10.0 mi North - - N/A   Overcast
5:15 PM 74.3 °F 61.2 °F 63% 30.11 in 10.0 mi North - - N/A   Overcast
5:35 PM 74.7 °F 62.1 °F 65% 30.10 in 10.0 mi North - - N/A   Overcast
5:55 PM 74.8 °F 62.2 °F 65% 30.11 in 10.0 mi North - - N/A   Overcast
6:15 PM 74.7 °F 65.1 °F 72% 30.10 in 10.0 mi North - - N/A   Overcast
6:35 PM 74.3 °F 65.1 °F 73% 30.10 in 10.0 mi North - - N/A   Overcast
6:55 PM 73.8 °F 64.4 °F 72% 30.10 in 10.0 mi North - - N/A   Overcast
7:15 PM 72.9 °F 66.6 °F 81% 30.11 in 10.0 mi North - - N/A   Overcast
7:35 PM 73.0 °F 65.8 °F 78% 30.11 in 10.0 mi North - - N/A   Overcast
7:55 PM 71.2 °F 66.4 °F 85% 30.12 in 10.0 mi North - - N/A   Overcast
8:15 PM 70.0 °F 66.2 °F 88% 30.12 in 10.0 mi North - - N/A   Overcast
8:35 PM 69.1 °F 65.3 °F 88% 30.12 in 10.0 mi North - - N/A   Overcast
8:55 PM 68.4 °F 65.1 °F 89% 30.12 in 10.0 mi North - - N/A   Overcast
9:15 PM 68.2 °F 64.9 °F 89% 30.13 in 10.0 mi North - - N/A   Overcast
9:35 PM 67.6 °F 64.6 °F 90% 30.13 in 10.0 mi North - - N/A   Overcast
9:55 PM 67.1 °F 64.9 °F 93% 30.14 in 10.0 mi North - - N/A   Overcast
10:15 PM 66.6 °F 64.6 °F 93% 30.14 in 10.0 mi North - - N/A   Mostly Cloudy
10:35 PM 66.2 °F 64.4 °F 94% 30.14 in 10.0 mi North - - N/A Rain Light Rain
10:55 PM 66.2 °F 64.4 °F 94% 30.14 in 10.0 mi North - - N/A   Overcast
11:15 PM 66.2 °F 64.4 °F 94% 30.14 in 10.0 mi North - - N/A   Overcast
11:35 PM 66.2 °F 64.4 °F 94% 30.14 in 10.0 mi North - - N/A   Overcast
11:55 PM 66.2 °F 64.4 °F 94% 30.14 in 10.0 mi North - - N/A   Overcast